Regional Weather Roundup
Issued by NWS

Home | Current Version | Previous Version | Graphics & Text | Print | Product List | Glossary On
Versions: 1 2 3 4 5 6 7 8 9 10 11 12 13 14 15 16 17 18 19 20 21 22 23 24 25 26 27 28 29 30 31 32 33 34 35 36 37 38 39 40 41 42 43 44 45 46 47 48 49 50
000
ASUS43 KLOT 071703
RWRIL

ILLINOIS REGIONAL WEATHER ROUNDUP
NATIONAL WEATHER SERVICE CHICAGO/ROMEOVILLE IL
1100 AM CST SUN FEB 07 2016

NOTE: "FAIR" INDICATES FEW OR NO CLOUDS BELOW 12,000 FEET WITH NO
SIGNIFICANT WEATHER AND/OR OBSTRUCTIONS TO VISIBILITY.

* THESE STATIONS ARE NOT UNDER NWS QUALITY CONTROL. THEY ALSO MAY NOT
  REPORT WEATHER SUCH AS PRECIPITATION OR FOG.

ILZ001-002-007-009-015-016-024-071800-
NORTHWEST ILLINOIS

CITY           SKY/WX    TMP DP  RH WIND       PRES   REMARKS
MOLINE         CLOUDY    41  29  62 MISG      29.81S
STERLING*      CLOUDY    39  30  70 W15       29.76F WCI  31
$$

ILZ003-004-008-010-011-017-018-071800-
NORTH CENTRAL ILLINOIS

CITY           SKY/WX    TMP DP  RH WIND       PRES   REMARKS
ROCKFORD       PTSUNNY   40  30  67 SW14      29.77F
FREEPORT*      MOSUNNY   39  31  74 W13G20    29.76S WCI  31
$$

ILZ005-006-012>014-019>023-071800-
NORTHEAST ILLINOIS

CITY           SKY/WX    TMP DP  RH WIND       PRES   REMARKS
CHICAGO-OHARE  PTSUNNY   41  29  62 W17G26    29.77F
CHICAGO-MIDWAY CLOUDY    45  29  53 W14       29.79F
AURORA         CLOUDY    41  30  65 SW17G24   29.79F
LANSING*       MOSUNNY   43  31  62 SW23      29.82F
WAUKEGAN       CLOUDY    41  30  65 SW21G31   29.73F
DUPAGE AIRPORT MOSUNNY   41  29  62 SW17G24   29.77F
WHEELING       CLOUDY    42  29  59 SW17G26   29.77F
NORTHERLY ISL    N/A     43  28  56 W12         N/A
$$

LMZ740>746-071800-
SOUTHERN LAKE MICHIGAN

STATION/POSITION SKY/WX   TEMP    WIND        PRES    VSBY  WAVE
                          AIR SEA DIR/SP/G                  HT/PER
                          (F)     (DEG/KT/KT) (MB)    (MI)  (FT/S)
HARRISON CRIB              42     230/ 19/ 23   N/A
BURNHAM HARBOR             43     270/  7/ 18   N/A
CALUMET HARBOR                    210/ 12/ 20   N/A
BURNS HARBOR               43     220/ 23     1010.5F
MICHIGAN CITY              42     190/ 21/ 24   N/A
$$

ILZ025>027-034>036-040-047-049-050-058-095>099-071800-
WEST-CENTRAL ILLINOIS

CITY           SKY/WX    TMP DP  RH WIND       PRES   REMARKS
QUINCY         MOSUNNY   44  29  55 W16G24    29.90R
MACOMB*        MOSUNNY   44  32  64 W21       29.88S
$$

ILZ028>032-037-038-041>044-048-051>054-059>061-071800-
CENTRAL ILLINOIS

CITY           SKY/WX    TMP DP  RH WIND       PRES   REMARKS
BLOOMINGTON    MOSUNNY   45  32  60 SW22G29   29.85F
DECATUR        SUNNY     48  29  47 W24G31    29.90F
PEORIA         MOSUNNY   45  29  53 W14G24    29.85F
SPRINGFIELD    SUNNY     48  31  51 W18G24    29.89F
TAYLORVILLE    NOT AVBL
$$

ILZ033-039-045-046-055>057-062-063-071800-
EAST-CENTRAL ILLINOIS

CITY           SKY/WX    TMP DP  RH WIND       PRES   REMARKS
CHAMPAIGN      SUNNY     46  32  58 SW20G29   29.90F
MATTOON        MOSUNNY   47  29  49 SW15G24   29.93F
$$

ILZ079-100>102-071800-
SOUTHWEST ILLINOIS

CITY           SKY/WX    TMP DP  RH WIND       PRES   REMARKS
ALTON          PTSUNNY   50  28  43 W17G28    29.95F
BELLEVILLE     SUNNY     53  28  38 SW14      29.96F
CAHOKIA*       SUNNY     53  25  33 SW17G26   29.96F
SPARTA*        MOSUNNY   51  30  44 SW13G20   30.01F
$$

ILZ064>066-069>071-074>076-080>082-084>086-088>090-092>094-071800-
SOUTH-CENTRAL ILLINOIS

CITY           SKY/WX    TMP DP  RH WIND       PRES   REMARKS
CARBONDALE     SUNNY     51  28  41 SW17G26   30.04F
MARION         PTSUNNY   54  30  40 SW17G25   30.06F
MT. VERNON     CLOUDY    50  30  46 S17G24    30.02F
CENTRALIA*     SUNNY     51  32  49 SW15      29.99F
SALEM*         SUNNY     52  30  43 SW15G23   29.99F
$$

ILZ067-068-072-073-078-083-087-091-071800-
SOUTHEAST ILLINOIS

CITY           SKY/WX    TMP DP  RH WIND       PRES   REMARKS
LAWRENCEVILLE  CLOUDY    51  31  46 SW20      30.03F
HARRISBURG*    CLOUDY    48  29  47 SW14      30.07F
ROBINSON*      SUNNY     49  31  51 SW15G24   30.02F
CARMI*         SUNNY     51  32  48 SW15G21   30.05F
$$

ABBREVIATIONS USED IN REMARKS
   TC - TEMPERATURE IN CELSIUS
  WCI - WIND CHILL INDEX
   HX - HEAT INDEX
  VSB - VISIBILITY
$$




USA.gov is the U.S. government's official web portal to all federal, state and local government web resources and services.